Time,TemperatureF,DewpointF,PressureIn,WindDirection,WindDirectionDegrees,WindSpeedMPH,WindSpeedGustMPH,Humidity,HourlyPrecipIn,Conditions,Clouds,dailyrainin,SolarRadiationWatts/m^2,SoftwareType,DateUTC
2013-02-21 00:00:00,25.7,15.9,30.20,NNW,333,0.0,0.0,66,0.00,,,0.00,0,HR-IXPWINDi_r2_v1.2.,2013-02-21 05:00:00,
2013-02-21 00:05:00,25.4,16.0,30.20,NNW,333,0.0,2.0,67,0.00,,,0.00,0,HR-IXPWINDi_r2_v1.2.,2013-02-21 05:05:00,
2013-02-21 00:10:00,25.3,15.6,30.20,NNW,333,2.0,2.0,66,0.00,,,0.00,0,HR-IXPWINDi_r2_v1.2.,2013-02-21 05:10:00,
2013-02-21 00:15:00,25.0,15.3,30.20,NNW,333,2.0,3.0,66,0.00,,,0.00,0,HR-IXPWINDi_r2_v1.2.,2013-02-21 05:15:00,
2013-02-21 00:20:00,25.0,15.6,30.21,NNW,333,0.0,3.0,67,0.00,,,0.00,0,HR-IXPWINDi_r2_v1.2.,2013-02-21 05:20:00,
2013-02-21 00:25:00,25.1,15.4,30.20,NNW,333,0.0,3.0,66,0.00,,,0.00,0,HR-IXPWINDi_r2_v1.2.,2013-02-21 05:25:00,
2013-02-21 00:31:00,24.9,15.5,30.21,NNW,333,1.0,2.0,67,0.00,,,0.00,0,HR-IXPWINDi_r2_v1.2.,2013-02-21 05:31:00,
2013-02-21 00:36:00,24.8,15.8,30.21,NNW,333,0.0,2.0,68,0.00,,,0.00,0,HR-IXPWINDi_r2_v1.2.,2013-02-21 05:36:00,
2013-02-21 00:41:00,25.1,16.1,30.20,NNW,333,0.0,2.0,68,0.00,,,0.00,0,HR-IXPWINDi_r2_v1.2.,2013-02-21 05:41:00,
2013-02-21 00:46:00,25.0,15.6,30.20,NNW,333,2.0,3.0,67,0.00,,,0.00,0,HR-IXPWINDi_r2_v1.2.,2013-02-21 05:46:00,
2013-02-21 00:51:00,24.9,15.2,30.20,NNW,333,0.0,3.0,66,0.00,,,0.00,0,HR-IXPWINDi_r2_v1.2.,2013-02-21 05:51:00,
2013-02-21 00:56:00,24.8,16.1,30.20,NNW,333,0.0,3.0,69,0.00,,,0.00,0,HR-IXPWINDi_r2_v1.2.,2013-02-21 05:56:00,
2013-02-21 01:02:00,24.4,16.0,30.20,NNW,333,0.0,1.0,70,0.00,,,0.00,0,HR-IXPWINDi_r2_v1.2.,2013-02-21 06:02:00,
2013-02-21 01:07:00,24.2,16.2,30.20,NNW,333,0.0,1.0,71,0.00,,,0.00,0,HR-IXPWINDi_r2_v1.2.,2013-02-21 06:07:00,
2013-02-21 01:12:00,24.2,16.2,30.20,NNW,333,2.0,3.0,71,0.00,,,0.00,0,HR-IXPWINDi_r2_v1.2.,2013-02-21 06:12:00,
2013-02-21 01:17:00,24.1,16.1,30.20,NNW,333,0.0,3.0,71,0.00,,,0.00,0,HR-IXPWINDi_r2_v1.2.,2013-02-21 06:17:00,
2013-02-21 01:22:00,23.8,15.5,30.20,NNW,333,0.0,3.0,70,0.00,,,0.00,0,HR-IXPWINDi_r2_v1.2.,2013-02-21 06:22:00,
2013-02-21 01:27:00,23.5,15.5,30.20,NNW,333,0.0,0.0,71,0.00,,,0.00,0,HR-IXPWINDi_r2_v1.2.,2013-02-21 06:27:00,
2013-02-21 01:32:00,23.5,15.8,30.20,NNW,333,0.0,0.0,72,0.00,,,0.00,0,HR-IXPWINDi_r2_v1.2.,2013-02-21 06:32:00,
2013-02-21 01:38:00,23.9,16.8,30.21,NNW,333,0.0,0.0,74,0.00,,,0.00,0,HR-IXPWINDi_r2_v1.2.,2013-02-21 06:38:00,
2013-02-21 01:43:00,23.8,16.4,30.21,NNW,333,0.0,0.0,73,0.00,,,0.00,0,HR-IXPWINDi_r2_v1.2.,2013-02-21 06:43:00,
2013-02-21 01:48:00,23.3,16.3,30.20,NNW,333,0.0,0.0,74,0.00,,,0.00,0,HR-IXPWINDi_r2_v1.2.,2013-02-21 06:48:00,
2013-02-21 01:53:00,23.5,16.8,30.21,NNW,333,0.0,0.0,75,0.00,,,0.00,0,HR-IXPWINDi_r2_v1.2.,2013-02-21 06:53:00,
2013-02-21 01:58:00,23.4,16.7,30.21,NNW,333,1.0,2.0,75,0.00,,,0.00,0,HR-IXPWINDi_r2_v1.2.,2013-02-21 06:58:00,
2013-02-21 02:03:00,23.2,16.8,30.21,NNW,333,1.0,2.0,76,0.00,,,0.00,0,HR-IXPWINDi_r2_v1.2.,2013-02-21 07:03:00,
2013-02-21 02:08:00,23.5,16.8,30.21,NNW,333,0.0,2.0,75,0.00,,,0.00,0,HR-IXPWINDi_r2_v1.2.,2013-02-21 07:08:00,
2013-02-21 02:13:00,23.4,16.7,30.21,NNW,333,0.0,2.0,75,0.00,,,0.00,0,HR-IXPWINDi_r2_v1.2.,2013-02-21 07:13:00,
2013-02-21 02:18:00,23.6,16.9,30.22,NNW,333,0.0,0.0,75,0.00,,,0.00,0,HR-IXPWINDi_r2_v1.2.,2013-02-21 07:18:00,
2013-02-21 02:23:00,23.1,16.4,30.22,NNW,333,0.0,0.0,75,0.00,,,0.00,0,HR-IXPWINDi_r2_v1.2.,2013-02-21 07:23:00,
2013-02-21 02:28:00,22.8,16.4,30.22,NNW,333,0.0,0.0,76,0.00,,,0.00,0,HR-IXPWINDi_r2_v1.2.,2013-02-21 07:28:00,
2013-02-21 02:34:00,23.5,17.1,30.22,NNW,333,0.0,0.0,76,0.00,,,0.00,0,HR-IXPWINDi_r2_v1.2.,2013-02-21 07:34:00,
2013-02-21 02:39:00,23.8,17.1,30.22,NNW,333,0.0,0.0,75,0.00,,,0.00,0,HR-IXPWINDi_r2_v1.2.,2013-02-21 07:39:00,
2013-02-21 02:44:00,23.1,16.4,30.21,NNW,333,0.0,0.0,75,0.00,,,0.00,0,HR-IXPWINDi_r2_v1.2.,2013-02-21 07:44:00,
2013-02-21 02:50:00,22.9,16.8,30.22,NNW,333,0.0,0.0,77,0.00,,,0.00,0,HR-IXPWINDi_r2_v1.2.,2013-02-21 07:50:00,
2013-02-21 02:55:00,23.3,17.2,30.22,NNW,333,0.0,2.0,77,0.00,,,0.00,0,HR-IXPWINDi_r2_v1.2.,2013-02-21 07:55:00,
2013-02-21 03:00:00,23.0,16.6,30.22,NNW,333,0.0,2.0,76,0.00,,,0.00,0,HR-IXPWINDi_r2_v1.2.,2013-02-21 08:00:00,
2013-02-21 03:05:00,22.5,16.4,30.22,NNW,333,0.0,1.0,77,0.00,,,0.00,0,HR-IXPWINDi_r2_v1.2.,2013-02-21 08:05:00,
2013-02-21 03:10:00,22.7,16.9,30.22,NNW,333,0.0,1.0,78,0.00,,,0.00,0,HR-IXPWINDi_r2_v1.2.,2013-02-21 08:10:00,
2013-02-21 03:15:00,22.4,16.6,30.22,NNW,333,0.0,1.0,78,0.00,,,0.00,0,HR-IXPWINDi_r2_v1.2.,2013-02-21 08:15:00,
2013-02-21 03:20:00,22.6,16.5,30.22,NNW,333,0.0,1.0,77,0.00,,,0.00,0,HR-IXPWINDi_r2_v1.2.,2013-02-21 08:20:00,
2013-02-21 03:25:00,22.5,16.4,30.22,NNW,333,1.0,1.0,77,0.00,,,0.00,0,HR-IXPWINDi_r2_v1.2.,2013-02-21 08:25:00,
2013-02-21 03:30:00,22.2,16.1,30.22,NNW,333,0.0,1.0,77,0.00,,,0.00,0,HR-IXPWINDi_r2_v1.2.,2013-02-21 08:30:00,
2013-02-21 03:36:00,22.2,16.1,30.22,NNW,333,0.0,1.0,77,0.00,,,0.00,0,HR-IXPWINDi_r2_v1.2.,2013-02-21 08:36:00,
2013-02-21 03:41:00,21.8,16.0,30.22,NNW,333,0.0,1.0,78,0.00,,,0.00,0,HR-IXPWINDi_r2_v1.2.,2013-02-21 08:41:00,
2013-02-21 03:46:00,21.8,16.3,30.22,NNW,333,0.0,1.0,79,0.00,,,0.00,0,HR-IXPWINDi_r2_v1.2.,2013-02-21 08:46:00,
2013-02-21 03:51:00,22.1,16.6,30.22,NNW,333,0.0,0.0,79,0.00,,,0.00,0,HR-IXPWINDi_r2_v1.2.,2013-02-21 08:51:00,
2013-02-21 03:56:00,22.5,16.7,30.22,NNW,333,0.0,0.0,78,0.00,,,0.00,0,HR-IXPWINDi_r2_v1.2.,2013-02-21 08:56:00,
2013-02-21 04:01:00,22.5,16.7,30.22,NNW,333,0.0,0.0,78,0.00,,,0.00,0,HR-IXPWINDi_r2_v1.2.,2013-02-21 09:01:00,
2013-02-21 04:07:00,22.2,16.4,30.22,NNW,333,0.0,0.0,78,0.00,,,0.00,0,HR-IXPWINDi_r2_v1.2.,2013-02-21 09:07:00,
2013-02-21 04:12:00,21.8,16.3,30.22,NNW,333,1.0,1.0,79,0.00,,,0.00,0,HR-IXPWINDi_r2_v1.2.,2013-02-21 09:12:00,
2013-02-21 04:17:00,21.4,16.2,30.22,NNW,333,0.0,1.0,80,0.00,,,0.00,0,HR-IXPWINDi_r2_v1.2.,2013-02-21 09:17:00,
2013-02-21 04:22:00,21.4,16.5,30.22,NNW,333,0.0,1.0,81,0.00,,,0.00,0,HR-IXPWINDi_r2_v1.2.,2013-02-21 09:22:00,
2013-02-21 04:27:00,21.4,16.5,30.22,NNW,333,0.0,1.0,81,0.00,,,0.00,0,HR-IXPWINDi_r2_v1.2.,2013-02-21 09:27:00,
2013-02-21 04:32:00,20.9,16.0,30.22,NNW,333,0.0,1.0,81,0.00,,,0.00,0,HR-IXPWINDi_r2_v1.2.,2013-02-21 09:32:00,
2013-02-21 04:37:00,20.6,16.0,30.22,NNW,333,0.0,1.0,82,0.00,,,0.00,0,HR-IXPWINDi_r2_v1.2.,2013-02-21 09:37:00,
2013-02-21 04:43:00,20.8,16.5,30.22,NNW,333,0.0,0.0,83,0.00,,,0.00,0,HR-IXPWINDi_r2_v1.2.,2013-02-21 09:43:00,
2013-02-21 04:48:00,21.3,16.7,30.22,NNW,333,0.0,1.0,82,0.00,,,0.00,0,HR-IXPWINDi_r2_v1.2.,2013-02-21 09:48:00,
2013-02-21 04:53:00,21.1,16.2,30.22,NNW,333,0.0,1.0,81,0.00,,,0.00,0,HR-IXPWINDi_r2_v1.2.,2013-02-21 09:53:00,
2013-02-21 04:58:00,21.3,16.4,30.22,NNW,333,0.0,1.0,81,0.00,,,0.00,0,HR-IXPWINDi_r2_v1.2.,2013-02-21 09:58:00,
2013-02-21 05:03:00,21.3,16.4,30.22,NNW,333,0.0,0.0,81,0.00,,,0.00,0,HR-IXPWINDi_r2_v1.2.,2013-02-21 10:03:00,
2013-02-21 05:09:00,21.6,16.7,30.22,NNW,333,0.0,0.0,81,0.00,,,0.00,0,HR-IXPWINDi_r2_v1.2.,2013-02-21 10:09:00,
2013-02-21 05:14:00,21.3,16.4,30.23,NNW,333,0.0,0.0,81,0.00,,,0.00,0,HR-IXPWINDi_r2_v1.2.,2013-02-21 10:14:00,
2013-02-21 05:19:00,21.2,16.3,30.23,NNW,333,0.0,0.0,81,0.00,,,0.00,0,HR-IXPWINDi_r2_v1.2.,2013-02-21 10:19:00,
2013-02-21 05:24:00,21.2,16.3,30.23,NNW,333,0.0,0.0,81,0.00,,,0.00,0,HR-IXPWINDi_r2_v1.2.,2013-02-21 10:24:00,
2013-02-21 05:29:00,20.9,16.0,30.23,NNW,333,0.0,0.0,81,0.00,,,0.00,0,HR-IXPWINDi_r2_v1.2.,2013-02-21 10:29:00,
2013-02-21 05:34:00,20.7,16.1,30.23,NNW,333,0.0,0.0,82,0.00,,,0.00,0,HR-IXPWINDi_r2_v1.2.,2013-02-21 10:34:00,
2013-02-21 05:40:00,20.6,16.3,30.24,NNW,333,0.0,0.0,83,0.00,,,0.00,0,HR-IXPWINDi_r2_v1.2.,2013-02-21 10:40:00,
2013-02-21 05:45:00,21.3,17.0,30.24,NNW,333,0.0,0.0,83,0.00,,,0.00,0,HR-IXPWINDi_r2_v1.2.,2013-02-21 10:45:00,
2013-02-21 05:50:00,21.7,16.8,30.24,NNW,333,0.0,0.0,81,0.00,,,0.00,0,HR-IXPWINDi_r2_v1.2.,2013-02-21 10:50:00,
2013-02-21 05:56:00,21.6,16.7,30.24,NNW,333,0.0,0.0,81,0.00,,,0.00,0,HR-IXPWINDi_r2_v1.2.,2013-02-21 10:56:00,
2013-02-21 06:01:00,21.3,16.4,30.24,NNW,333,0.0,1.0,81,0.00,,,0.00,0,HR-IXPWINDi_r2_v1.2.,2013-02-21 11:01:00,
2013-02-21 06:06:00,20.7,15.5,30.24,NNW,333,0.0,1.0,80,0.00,,,0.00,0,HR-IXPWINDi_r2_v1.2.,2013-02-21 11:06:00,
2013-02-21 06:11:00,20.2,15.6,30.24,NNW,333,0.0,2.0,82,0.00,,,0.00,0,HR-IXPWINDi_r2_v1.2.,2013-02-21 11:11:00,
2013-02-21 06:17:00,20.3,16.3,30.24,NNW,333,0.0,2.0,84,0.00,,,0.00,0,HR-IXPWINDi_r2_v1.2.,2013-02-21 11:17:00,
2013-02-21 06:22:00,20.9,16.6,30.24,NNW,333,0.0,1.0,83,0.00,,,0.00,0,HR-IXPWINDi_r2_v1.2.,2013-02-21 11:22:00,
2013-02-21 06:27:00,20.7,16.4,30.25,NNW,333,0.0,1.0,83,0.00,,,0.00,0,HR-IXPWINDi_r2_v1.2.,2013-02-21 11:27:00,
2013-02-21 06:32:00,21.0,16.4,30.25,NNW,333,0.0,1.0,82,0.00,,,0.00,0,HR-IXPWINDi_r2_v1.2.,2013-02-21 11:32:00,
2013-02-21 06:37:00,20.6,16.0,30.25,NNW,333,0.0,1.0,82,0.00,,,0.00,0,HR-IXPWINDi_r2_v1.2.,2013-02-21 11:37:00,
2013-02-21 06:43:00,20.3,15.7,30.25,NNW,333,0.0,1.0,82,0.00,,,0.00,0,HR-IXPWINDi_r2_v1.2.,2013-02-21 11:43:00,
2013-02-21 06:48:00,20.3,15.7,30.25,NNW,333,2.0,3.0,82,0.00,,,0.00,0,HR-IXPWINDi_r2_v1.2.,2013-02-21 11:48:00,
2013-02-21 06:53:00,20.4,15.8,30.26,NNW,333,0.0,3.0,82,0.00,,,0.00,0,HR-IXPWINDi_r2_v1.2.,2013-02-21 11:53:00,
2013-02-21 06:58:00,20.2,15.9,30.26,ENE,78,1.0,2.0,83,0.00,,,0.00,0,HR-IXPWINDi_r2_v1.2.,2013-02-21 11:58:00,
2013-02-21 07:03:00,19.8,15.8,30.26,ENE,78,0.0,2.0,84,0.00,,,0.00,0,HR-IXPWINDi_r2_v1.2.,2013-02-21 12:03:00,
2013-02-21 07:08:00,20.3,16.5,30.27,ENE,78,0.0,1.0,85,0.00,,,0.00,0,HR-IXPWINDi_r2_v1.2.,2013-02-21 12:08:00,
2013-02-21 07:13:00,20.7,16.7,30.27,ENE,78,0.0,0.0,84,0.00,,,0.00,5,HR-IXPWINDi_r2_v1.2.,2013-02-21 12:13:00,
2013-02-21 07:19:00,20.3,16.0,30.27,ENE,78,0.0,1.0,83,0.00,,,0.00,7,HR-IXPWINDi_r2_v1.2.,2013-02-21 12:19:00,
2013-02-21 07:24:00,20.3,16.3,30.28,ENE,78,0.0,1.0,84,0.00,,,0.00,9,HR-IXPWINDi_r2_v1.2.,2013-02-21 12:24:00,
2013-02-21 07:29:00,20.7,16.4,30.28,ENE,78,0.0,1.0,83,0.00,,,0.00,11,HR-IXPWINDi_r2_v1.2.,2013-02-21 12:29:00,
2013-02-21 07:34:00,20.9,16.0,30.28,ENE,78,2.0,2.0,81,0.00,,,0.00,12,HR-IXPWINDi_r2_v1.2.,2013-02-21 12:34:00,
2013-02-21 07:39:00,20.7,15.8,30.28,ENE,78,1.0,2.0,81,0.00,,,0.00,12,HR-IXPWINDi_r2_v1.2.,2013-02-21 12:39:00,
2013-02-21 07:45:00,20.3,15.7,30.28,East,88,2.0,3.0,82,0.00,,,0.00,14,HR-IXPWINDi_r2_v1.2.,2013-02-21 12:45:00,
2013-02-21 07:50:00,20.3,16.3,30.28,East,99,0.0,5.0,84,0.00,,,0.00,40,HR-IXPWINDi_r2_v1.2.,2013-02-21 12:50:00,
2013-02-21 07:55:00,20.9,16.9,30.29,East,99,1.0,5.0,84,0.00,,,0.00,97,HR-IXPWINDi_r2_v1.2.,2013-02-21 12:55:00,
2013-02-21 08:00:00,21.8,16.9,30.29,East,99,1.0,2.0,81,0.00,,,0.00,114,HR-IXPWINDi_r2_v1.2.,2013-02-21 13:00:00,
2013-02-21 08:06:00,22.7,18.1,30.28,ESE,104,1.0,4.0,82,0.00,,,0.00,134,HR-IXPWINDi_r2_v1.2.,2013-02-21 13:06:00,
2013-02-21 08:11:00,22.7,18.1,30.28,ESE,105,2.0,4.0,82,0.00,,,0.00,146,HR-IXPWINDi_r2_v1.2.,2013-02-21 13:11:00,
2013-02-21 08:16:00,22.7,17.5,30.27,ESE,107,2.0,4.0,80,0.00,,,0.00,156,HR-IXPWINDi_r2_v1.2.,2013-02-21 13:16:00,
2013-02-21 08:21:00,23.8,18.5,30.28,ESE,107,1.0,4.0,80,0.00,,,0.00,178,HR-IXPWINDi_r2_v1.2.,2013-02-21 13:21:00,
2013-02-21 08:27:00,24.7,18.8,30.28,ESE,107,2.0,4.0,78,0.00,,,0.00,199,HR-IXPWINDi_r2_v1.2.,2013-02-21 13:27:00,
2013-02-21 08:32:00,25.4,19.2,30.28,ESE,109,2.0,4.0,77,0.00,,,0.00,220,HR-IXPWINDi_r2_v1.2.,2013-02-21 13:32:00,
2013-02-21 08:37:00,25.8,19.0,30.27,SE,132,1.0,4.0,75,0.00,,,0.00,239,HR-IXPWINDi_r2_v1.2.,2013-02-21 13:37:00,
2013-02-21 08:42:00,26.8,18.7,30.28,SE,132,0.0,4.0,71,0.00,,,0.00,258,HR-IXPWINDi_r2_v1.2.,2013-02-21 13:42:00,
2013-02-21 08:47:00,27.6,18.4,30.28,SE,132,0.0,4.0,68,0.00,,,0.00,278,HR-IXPWINDi_r2_v1.2.,2013-02-21 13:47:00,
2013-02-21 08:53:00,28.8,18.2,30.28,SE,132,0.0,0.0,64,0.00,,,0.00,271,HR-IXPWINDi_r2_v1.2.,2013-02-21 13:53:00,
2013-02-21 08:58:00,28.9,18.3,30.28,SE,132,0.0,4.0,64,0.00,,,0.00,309,HR-IXPWINDi_r2_v1.2.,2013-02-21 13:58:00,
2013-02-21 09:03:00,29.8,17.2,30.28,SE,132,0.0,4.0,59,0.00,,,0.00,325,HR-IXPWINDi_r2_v1.2.,2013-02-21 14:03:00,
2013-02-21 09:08:00,31.1,18.1,30.28,SSW,198,5.0,6.0,58,0.00,,,0.00,341,HR-IXPWINDi_r2_v1.2.,2013-02-21 14:08:00,
2013-02-21 09:13:00,32.0,18.1,30.29,South,171,0.0,6.0,56,0.00,,,0.00,357,HR-IXPWINDi_r2_v1.2.,2013-02-21 14:13:00,
2013-02-21 09:18:00,32.5,16.8,30.28,South,181,0.0,5.0,52,0.00,,,0.00,373,HR-IXPWINDi_r2_v1.2.,2013-02-21 14:18:00,
2013-02-21 09:24:00,33.5,16.4,30.28,West,265,0.0,3.0,49,0.00,,,0.00,387,HR-IXPWINDi_r2_v1.2.,2013-02-21 14:24:00,
2013-02-21 09:29:00,34.2,15.1,30.28,WNW,287,1.0,3.0,45,0.00,,,0.00,401,HR-IXPWINDi_r2_v1.2.,2013-02-21 14:29:00,
2013-02-21 09:34:00,34.3,14.7,30.28,NNW,329,0.0,4.0,44,0.00,,,0.00,417,HR-IXPWINDi_r2_v1.2.,2013-02-21 14:34:00,
2013-02-21 09:39:00,34.1,14.5,30.28,SSW,196,2.0,5.0,44,0.00,,,0.00,431,HR-IXPWINDi_r2_v1.2.,2013-02-21 14:39:00,
2013-02-21 09:45:00,34.0,13.3,30.28,SSW,196,2.0,5.0,42,0.00,,,0.00,445,HR-IXPWINDi_r2_v1.2.,2013-02-21 14:45:00,
2013-02-21 09:50:00,34.8,14.6,30.28,South,190,1.0,5.0,43,0.00,,,0.00,459,HR-IXPWINDi_r2_v1.2.,2013-02-21 14:50:00,
2013-02-21 09:55:00,34.9,14.2,30.28,SSW,193,6.0,6.0,42,0.00,,,0.00,471,HR-IXPWINDi_r2_v1.2.,2013-02-21 14:55:00,
2013-02-21 10:00:00,35.1,13.8,30.28,South,184,5.0,6.0,41,0.00,,,0.00,487,HR-IXPWINDi_r2_v1.2.,2013-02-21 15:00:00,
2013-02-21 10:05:00,35.7,14.9,30.28,SSW,198,0.0,7.0,42,0.00,,,0.00,499,HR-IXPWINDi_r2_v1.2.,2013-02-21 15:05:00,
2013-02-21 10:11:00,36.2,14.2,30.28,SSW,194,6.0,7.0,40,0.00,,,0.00,512,HR-IXPWINDi_r2_v1.2.,2013-02-21 15:11:00,
2013-02-21 10:17:00,36.7,15.2,30.28,SSW,194,3.0,7.0,41,0.00,,,0.00,526,HR-IXPWINDi_r2_v1.2.,2013-02-21 15:17:00,
2013-02-21 10:22:00,37.3,14.6,30.27,SSE,153,2.0,7.0,39,0.00,,,0.00,536,HR-IXPWINDi_r2_v1.2.,2013-02-21 15:22:00,
2013-02-21 10:27:00,37.6,14.3,30.27,SSE,155,4.0,5.0,38,0.00,,,0.00,548,HR-IXPWINDi_r2_v1.2.,2013-02-21 15:27:00,
2013-02-21 10:32:00,38.2,14.2,30.27,SSE,155,4.0,5.0,37,0.00,,,0.00,561,HR-IXPWINDi_r2_v1.2.,2013-02-21 15:32:00,
2013-02-21 10:38:00,38.8,14.8,30.27,SSE,152,4.0,4.0,37,0.00,,,0.00,573,HR-IXPWINDi_r2_v1.2.,2013-02-21 15:38:00,
2013-02-21 10:43:00,39.3,15.2,30.27,SSW,195,5.0,6.0,37,0.00,,,0.00,584,HR-IXPWINDi_r2_v1.2.,2013-02-21 15:43:00,
2013-02-21 10:48:00,39.9,14.5,30.26,SSW,192,0.0,6.0,35,0.00,,,0.00,592,HR-IXPWINDi_r2_v1.2.,2013-02-21 15:48:00,
2013-02-21 10:53:00,41.6,16.0,30.26,South,190,1.0,6.0,35,0.00,,,0.00,603,HR-IXPWINDi_r2_v1.2.,2013-02-21 15:53:00,
2013-02-21 10:58:00,42.4,14.6,30.26,South,182,4.0,7.0,32,0.00,,,0.00,612,HR-IXPWINDi_r2_v1.2.,2013-02-21 15:58:00,
2013-02-21 11:04:00,41.9,14.2,30.26,SSW,194,4.0,7.0,32,0.00,,,0.00,621,HR-IXPWINDi_r2_v1.2.,2013-02-21 16:04:00,
2013-02-21 11:09:00,41.8,14.8,30.25,SSW,196,5.0,8.0,33,0.00,,,0.00,629,HR-IXPWINDi_r2_v1.2.,2013-02-21 16:09:00,
2013-02-21 11:14:00,42.8,16.4,30.25,South,170,8.0,8.0,34,0.00,,,0.00,638,HR-IXPWINDi_r2_v1.2.,2013-02-21 16:14:00,
2013-02-21 11:19:00,43.3,15.4,30.25,SSW,196,3.0,8.0,32,0.00,,,0.00,645,HR-IXPWINDi_r2_v1.2.,2013-02-21 16:19:00,
2013-02-21 11:24:00,44.0,15.3,30.25,SSW,196,3.0,8.0,31,0.00,,,0.00,650,HR-IXPWINDi_r2_v1.2.,2013-02-21 16:24:00,
2013-02-21 11:29:00,44.0,16.8,30.25,SSW,203,6.0,8.0,33,0.00,,,0.00,656,HR-IXPWINDi_r2_v1.2.,2013-02-21 16:29:00,
2013-02-21 11:34:00,45.1,17.7,30.25,SSW,205,5.0,8.0,33,0.00,,,0.00,661,HR-IXPWINDi_r2_v1.2.,2013-02-21 16:34:00,
2013-02-21 11:40:00,45.3,16.5,30.24,South,182,4.0,9.0,31,0.00,,,0.00,666,HR-IXPWINDi_r2_v1.2.,2013-02-21 16:40:00,
2013-02-21 11:45:00,45.7,16.8,30.23,South,186,3.0,9.0,31,0.00,,,0.00,671,HR-IXPWINDi_r2_v1.2.,2013-02-21 16:45:00,
2013-02-21 11:50:00,45.9,16.2,30.23,SSW,202,6.0,7.0,30,0.00,,,0.00,675,HR-IXPWINDi_r2_v1.2.,2013-02-21 16:50:00,
2013-02-21 11:55:00,46.8,16.2,30.23,SSW,193,6.0,8.0,29,0.00,,,0.00,679,HR-IXPWINDi_r2_v1.2.,2013-02-21 16:55:00,
2013-02-21 12:00:00,47.5,17.6,30.23,SSW,198,4.0,8.0,30,0.00,,,0.00,680,HR-IXPWINDi_r2_v1.2.,2013-02-21 17:00:00,
2013-02-21 12:05:00,48.4,17.6,30.22,SSE,151,6.0,9.0,29,0.00,,,0.00,687,HR-IXPWINDi_r2_v1.2.,2013-02-21 17:05:00,
2013-02-21 12:11:00,49.1,17.4,30.21,SSW,205,2.0,9.0,28,0.00,,,0.00,691,HR-IXPWINDi_r2_v1.2.,2013-02-21 17:11:00,
2013-02-21 12:16:00,48.9,18.0,30.21,South,184,5.0,8.0,29,0.00,,,0.00,693,HR-IXPWINDi_r2_v1.2.,2013-02-21 17:16:00,
2013-02-21 12:21:00,50.5,16.9,30.20,South,189,6.0,8.0,26,0.00,,,0.00,698,HR-IXPWINDi_r2_v1.2.,2013-02-21 17:21:00,
2013-02-21 12:26:00,50.7,17.1,30.20,SSW,200,1.0,9.0,26,0.00,,,0.00,700,HR-IXPWINDi_r2_v1.2.,2013-02-21 17:26:00,
2013-02-21 12:32:00,52.3,18.4,30.19,South,181,2.0,9.0,26,0.00,,,0.00,700,HR-IXPWINDi_r2_v1.2.,2013-02-21 17:32:00,
2013-02-21 12:37:00,52.9,18.0,30.18,SSW,206,4.0,8.0,25,0.00,,,0.00,700,HR-IXPWINDi_r2_v1.2.,2013-02-21 17:37:00,
2013-02-21 12:42:00,53.3,17.4,30.18,SSW,201,1.0,8.0,24,0.00,,,0.00,698,HR-IXPWINDi_r2_v1.2.,2013-02-21 17:42:00,
2013-02-21 12:47:00,52.6,14.8,30.18,SSW,198,7.0,9.0,22,0.00,,,0.00,698,HR-IXPWINDi_r2_v1.2.,2013-02-21 17:47:00,
2013-02-21 12:53:00,54.4,15.3,30.18,SSW,202,5.0,9.0,21,0.00,,,0.00,693,HR-IXPWINDi_r2_v1.2.,2013-02-21 17:53:00,
2013-02-21 12:58:00,54.3,11.7,30.18,SW,224,1.0,9.0,18,0.00,,,0.00,693,HR-IXPWINDi_r2_v1.2.,2013-02-21 17:58:00,
2013-02-21 13:03:00,54.9,12.2,30.17,SSW,205,8.0,9.0,18,0.00,,,0.00,691,HR-IXPWINDi_r2_v1.2.,2013-02-21 18:03:00,
2013-02-21 13:08:00,54.5,13.1,30.17,SSW,196,1.0,11.0,19,0.00,,,0.00,689,HR-IXPWINDi_r2_v1.2.,2013-02-21 18:08:00,
2013-02-21 13:14:00,55.2,12.5,30.16,SW,214,1.0,11.0,18,0.00,,,0.00,686,HR-IXPWINDi_r2_v1.2.,2013-02-21 18:14:00,
2013-02-21 13:19:00,56.4,15.8,30.16,SSW,193,2.0,6.0,20,0.00,,,0.00,682,HR-IXPWINDi_r2_v1.2.,2013-02-21 18:19:00,
2013-02-21 13:24:00,57.1,16.4,30.16,SSW,197,1.0,6.0,20,0.00,,,0.00,680,HR-IXPWINDi_r2_v1.2.,2013-02-21 18:24:00,
2013-02-21 13:29:00,57.0,12.6,30.15,South,169,5.0,7.0,17,0.00,,,0.00,694,HR-IXPWINDi_r2_v1.2.,2013-02-21 18:29:00,
2013-02-21 13:35:00,56.6,11.0,30.15,SSE,151,4.0,8.0,16,0.00,,,0.00,675,HR-IXPWINDi_r2_v1.2.,2013-02-21 18:35:00,
2013-02-21 13:40:00,56.7,9.6,30.14,SSE,167,5.0,11.0,15,0.00,,,0.00,671,HR-IXPWINDi_r2_v1.2.,2013-02-21 18:40:00,
2013-02-21 13:45:00,57.2,10.0,30.14,South,169,1.0,11.0,15,0.00,,,0.00,668,HR-IXPWINDi_r2_v1.2.,2013-02-21 18:45:00,
2013-02-21 13:50:00,57.6,7.2,30.14,SSE,148,4.0,7.0,13,0.00,,,0.00,656,HR-IXPWINDi_r2_v1.2.,2013-02-21 18:50:00,
2013-02-21 13:55:00,58.1,9.2,30.13,WSW,246,2.0,7.0,14,0.00,,,0.00,652,HR-IXPWINDi_r2_v1.2.,2013-02-21 18:55:00,
2013-02-21 14:00:00,58.0,9.1,30.13,SSW,198,1.0,7.0,14,0.00,,,0.00,628,HR-IXPWINDi_r2_v1.2.,2013-02-21 19:00:00,
2013-02-21 14:06:00,58.2,5.9,30.12,SW,216,0.0,7.0,12,0.00,,,0.00,619,HR-IXPWINDi_r2_v1.2.,2013-02-21 19:06:00,
2013-02-21 14:11:00,58.7,9.7,30.13,SSW,202,3.0,7.0,14,0.00,,,0.00,612,HR-IXPWINDi_r2_v1.2.,2013-02-21 19:11:00,
2013-02-21 14:16:00,58.2,12.2,30.13,SSW,198,1.0,4.0,16,0.00,,,0.00,592,HR-IXPWINDi_r2_v1.2.,2013-02-21 19:16:00,
2013-02-21 14:22:00,58.5,9.5,30.12,SSW,192,6.0,8.0,14,0.00,,,0.00,557,HR-IXPWINDi_r2_v1.2.,2013-02-21 19:22:00,
2013-02-21 14:27:00,59.0,12.9,30.12,SSW,198,5.0,8.0,16,0.00,,,0.00,520,HR-IXPWINDi_r2_v1.2.,2013-02-21 19:27:00,
2013-02-21 14:32:00,59.3,10.1,30.12,SSW,198,5.0,8.0,14,0.00,,,0.00,594,HR-IXPWINDi_r2_v1.2.,2013-02-21 19:32:00,
2013-02-21 14:37:00,60.2,9.2,30.13,SSW,198,8.0,10.0,13,0.00,,,0.00,615,HR-IXPWINDi_r2_v1.2.,2013-02-21 19:37:00,
2013-02-21 14:42:00,59.6,7.0,30.13,SSE,161,4.0,10.0,12,0.00,,,0.00,619,HR-IXPWINDi_r2_v1.2.,2013-02-21 19:42:00,
2013-02-21 14:48:00,60.6,7.8,30.12,SSW,200,2.0,10.0,12,0.00,,,0.00,466,HR-IXPWINDi_r2_v1.2.,2013-02-21 19:48:00,
2013-02-21 14:53:00,60.7,11.3,30.13,SSW,198,3.0,7.0,14,0.00,,,0.00,425,HR-IXPWINDi_r2_v1.2.,2013-02-21 19:53:00,
2013-02-21 14:58:00,59.9,10.6,30.13,SSW,195,6.0,9.0,14,0.00,,,0.00,429,HR-IXPWINDi_r2_v1.2.,2013-02-21 19:58:00,
2013-02-21 15:04:00,59.5,8.7,30.13,SSW,194,3.0,9.0,13,0.00,,,0.00,325,HR-IXPWINDi_r2_v1.2.,2013-02-21 20:04:00,
2013-02-21 15:09:00,60.0,10.7,30.13,SSW,207,3.0,8.0,14,0.00,,,0.00,380,HR-IXPWINDi_r2_v1.2.,2013-02-21 20:09:00,
2013-02-21 15:14:00,59.8,12.1,30.13,SSW,206,1.0,9.0,15,0.00,,,0.00,320,HR-IXPWINDi_r2_v1.2.,2013-02-21 20:14:00,
2013-02-21 15:19:00,60.3,12.5,30.13,SW,227,1.0,9.0,15,0.00,,,0.00,357,HR-IXPWINDi_r2_v1.2.,2013-02-21 20:19:00,
2013-02-21 15:25:00,60.9,14.4,30.13,SSW,198,3.0,4.0,16,0.00,,,0.00,387,HR-IXPWINDi_r2_v1.2.,2013-02-21 20:25:00,
2013-02-21 15:30:00,60.4,14.0,30.13,South,188,2.0,7.0,16,0.00,,,0.00,367,HR-IXPWINDi_r2_v1.2.,2013-02-21 20:30:00,
2013-02-21 15:35:00,61.2,13.2,30.13,WNW,282,0.0,7.0,15,0.00,,,0.00,385,HR-IXPWINDi_r2_v1.2.,2013-02-21 20:35:00,
2013-02-21 15:40:00,60.5,11.1,30.13,West,281,0.0,3.0,14,0.00,,,0.00,325,HR-IXPWINDi_r2_v1.2.,2013-02-21 20:40:00,
2013-02-21 15:45:00,61.2,16.1,30.13,West,281,0.0,3.0,17,0.00,,,0.00,200,HR-IXPWINDi_r2_v1.2.,2013-02-21 20:45:00,
2013-02-21 15:50:00,60.5,12.6,30.12,SW,228,0.0,3.0,15,0.00,,,0.00,216,HR-IXPWINDi_r2_v1.2.,2013-02-21 20:50:00,
2013-02-21 15:56:00,60.1,12.3,30.12,North,355,3.0,5.0,15,0.00,,,0.00,199,HR-IXPWINDi_r2_v1.2.,2013-02-21 20:56:00,
2013-02-21 16:01:00,60.1,16.5,30.12,NNW,344,1.0,5.0,18,0.00,,,0.00,183,HR-IXPWINDi_r2_v1.2.,2013-02-21 21:01:00,
2013-02-21 16:06:00,60.4,15.4,30.11,NNW,344,0.0,4.0,17,0.00,,,0.00,160,HR-IXPWINDi_r2_v1.2.,2013-02-21 21:06:00,
2013-02-21 16:11:00,61.0,18.5,30.11,NNW,344,0.0,2.0,19,0.00,,,0.00,137,HR-IXPWINDi_r2_v1.2.,2013-02-21 21:11:00,
2013-02-21 16:16:00,60.4,18.0,30.11,NNW,344,0.0,2.0,19,0.00,,,0.00,125,HR-IXPWINDi_r2_v1.2.,2013-02-21 21:16:00,
2013-02-21 16:21:00,59.9,13.6,30.11,NNW,344,1.0,2.0,16,0.00,,,0.00,113,HR-IXPWINDi_r2_v1.2.,2013-02-21 21:21:00,
2013-02-21 16:26:00,59.6,13.4,30.11,NNW,344,1.0,2.0,16,0.00,,,0.00,109,HR-IXPWINDi_r2_v1.2.,2013-02-21 21:26:00,
2013-02-21 16:31:00,59.6,13.4,30.11,NNW,344,1.0,3.0,16,0.00,,,0.00,97,HR-IXPWINDi_r2_v1.2.,2013-02-21 21:31:00,
2013-02-21 16:37:00,59.1,18.1,30.11,NNW,344,0.0,3.0,20,0.00,,,0.00,81,HR-IXPWINDi_r2_v1.2.,2013-02-21 21:37:00,
2013-02-21 16:42:00,58.8,17.8,30.11,NNW,344,1.0,3.0,20,0.00,,,0.00,74,HR-IXPWINDi_r2_v1.2.,2013-02-21 21:42:00,
2013-02-21 16:47:00,58.6,17.7,30.11,NNW,344,0.0,2.0,20,0.00,,,0.00,77,HR-IXPWINDi_r2_v1.2.,2013-02-21 21:47:00,
2013-02-21 16:52:00,57.9,22.3,30.10,NNW,344,0.0,2.0,25,0.00,,,0.00,69,HR-IXPWINDi_r2_v1.2.,2013-02-21 21:52:00,
2013-02-21 16:57:00,58.2,25.2,30.10,NNW,344,0.0,2.0,28,0.00,,,0.00,54,HR-IXPWINDi_r2_v1.2.,2013-02-21 21:57:00,
2013-02-21 17:03:00,57.4,24.6,30.10,NNW,344,1.0,3.0,28,0.00,,,0.00,54,HR-IXPWINDi_r2_v1.2.,2013-02-21 22:03:00,
2013-02-21 17:08:00,56.7,26.4,30.10,NNW,344,0.0,3.0,31,0.00,,,0.00,54,HR-IXPWINDi_r2_v1.2.,2013-02-21 22:08:00,
2013-02-21 17:13:00,56.3,22.7,30.10,NNW,344,0.0,3.0,27,0.00,,,0.00,58,HR-IXPWINDi_r2_v1.2.,2013-02-21 22:13:00,
2013-02-21 17:18:00,56.7,24.8,30.10,NNW,344,0.0,2.0,29,0.00,,,0.00,54,HR-IXPWINDi_r2_v1.2.,2013-02-21 22:18:00,
2013-02-21 17:23:00,57.3,18.8,30.11,ESE,115,2.0,14.0,22,0.00,,,0.00,51,HR-IXPWINDi_r2_v1.2.,2013-02-21 22:23:00,
2013-02-21 17:28:00,57.4,17.8,30.11,SE,136,8.0,14.0,21,0.00,,,0.00,53,HR-IXPWINDi_r2_v1.2.,2013-02-21 22:28:00,
2013-02-21 17:34:00,57.1,17.5,30.11,SSW,196,2.0,12.0,21,0.00,,,0.00,49,HR-IXPWINDi_r2_v1.2.,2013-02-21 22:34:00,
2013-02-21 17:39:00,56.7,18.3,30.11,South,171,2.0,11.0,22,0.00,,,0.00,49,HR-IXPWINDi_r2_v1.2.,2013-02-21 22:39:00,
2013-02-21 17:44:00,56.4,21.0,30.12,SE,143,1.0,11.0,25,0.00,,,0.00,39,HR-IXPWINDi_r2_v1.2.,2013-02-21 22:44:00,
2013-02-21 17:49:00,55.8,22.3,30.12,North,355,3.0,5.0,27,0.00,,,0.00,23,HR-IXPWINDi_r2_v1.2.,2013-02-21 22:49:00,
2013-02-21 17:54:00,55.2,20.0,30.13,SSE,159,0.0,6.0,25,0.00,,,0.00,14,HR-IXPWINDi_r2_v1.2.,2013-02-21 22:54:00,
2013-02-21 17:59:00,55.4,22.8,30.12,ENE,67,1.0,6.0,28,0.00,,,0.00,11,HR-IXPWINDi_r2_v1.2.,2013-02-21 22:59:00,
2013-02-21 18:05:00,55.0,21.6,30.12,NNW,339,0.0,5.0,27,0.00,,,0.00,5,HR-IXPWINDi_r2_v1.2.,2013-02-21 23:05:00,
2013-02-21 18:10:00,54.9,19.7,30.12,WNW,298,2.0,5.0,25,0.00,,,0.00,0,HR-IXPWINDi_r2_v1.2.,2013-02-21 23:10:00,
2013-02-21 18:15:00,54.5,22.9,30.11,NNW,340,3.0,5.0,29,0.00,,,0.00,0,HR-IXPWINDi_r2_v1.2.,2013-02-21 23:15:00,
2013-02-21 18:20:00,53.8,22.3,30.12,NNW,344,1.0,4.0,29,0.00,,,0.00,0,HR-IXPWINDi_r2_v1.2.,2013-02-21 23:20:00,
2013-02-21 18:26:00,53.1,22.5,30.11,NNW,347,3.0,4.0,30,0.00,,,0.00,0,HR-IXPWINDi_r2_v1.2.,2013-02-21 23:26:00,
2013-02-21 18:31:00,53.4,19.4,30.12,NNE,28,0.0,4.0,26,0.00,,,0.00,0,HR-IXPWINDi_r2_v1.2.,2013-02-21 23:31:00,
2013-02-21 18:36:00,53.6,21.3,30.11,NNE,15,1.0,4.0,28,0.00,,,0.00,0,HR-IXPWINDi_r2_v1.2.,2013-02-21 23:36:00,
2013-02-21 18:41:00,52.9,21.5,30.11,NNE,15,0.0,3.0,29,0.00,,,0.00,0,HR-IXPWINDi_r2_v1.2.,2013-02-21 23:41:00,
2013-02-21 18:46:00,52.8,18.9,30.11,SE,126,4.0,9.0,26,0.00,,,0.00,0,HR-IXPWINDi_r2_v1.2.,2013-02-21 23:46:00,
2013-02-21 18:51:00,53.6,18.6,30.11,ESE,119,5.0,12.0,25,0.00,,,0.00,0,HR-IXPWINDi_r2_v1.2.,2013-02-21 23:51:00,
2013-02-21 18:56:00,54.0,19.0,30.11,SSE,160,0.0,12.0,25,0.00,,,0.00,0,HR-IXPWINDi_r2_v1.2.,2013-02-21 23:56:00,
2013-02-21 19:02:00,53.7,20.5,30.11,North,9,2.0,8.0,27,0.00,,,0.00,0,HR-IXPWINDi_r2_v1.2.,2013-02-22 00:02:00,
2013-02-21 19:07:00,51.5,24.7,30.10,North,9,0.0,3.0,35,0.00,,,0.00,0,HR-IXPWINDi_r2_v1.2.,2013-02-22 00:07:00,
2013-02-21 19:12:00,50.6,25.3,30.11,North,5,2.0,3.0,37,0.00,,,0.00,0,HR-IXPWINDi_r2_v1.2.,2013-02-22 00:12:00,
2013-02-21 19:17:00,50.5,21.7,30.11,NNE,17,2.0,6.0,32,0.00,,,0.00,0,HR-IXPWINDi_r2_v1.2.,2013-02-22 00:17:00,
2013-02-21 19:23:00,51.2,23.1,30.11,North,5,2.0,6.0,33,0.00,,,0.00,0,HR-IXPWINDi_r2_v1.2.,2013-02-22 00:23:00,
2013-02-21 19:28:00,52.0,19.9,30.10,ESE,119,1.0,6.0,28,0.00,,,0.00,0,HR-IXPWINDi_r2_v1.2.,2013-02-22 00:28:00,
2013-02-21 19:33:00,52.9,20.7,30.12,SE,132,4.0,6.0,28,0.00,,,0.00,0,HR-IXPWINDi_r2_v1.2.,2013-02-22 00:33:00,
2013-02-21 19:39:00,51.5,24.0,30.12,NW,321,0.0,6.0,34,0.00,,,0.00,0,HR-IXPWINDi_r2_v1.2.,2013-02-22 00:39:00,
2013-02-21 19:44:00,50.6,23.9,30.12,NNW,344,2.0,5.0,35,0.00,,,0.00,0,HR-IXPWINDi_r2_v1.2.,2013-02-22 00:44:00,
2013-02-21 19:49:00,50.6,21.8,30.12,North,9,2.0,4.0,32,0.00,,,0.00,0,HR-IXPWINDi_r2_v1.2.,2013-02-22 00:49:00,
2013-02-21 19:54:00,52.2,20.9,30.12,SE,146,0.0,5.0,29,0.00,,,0.00,0,HR-IXPWINDi_r2_v1.2.,2013-02-22 00:54:00,
2013-02-21 19:59:00,51.9,20.6,30.13,SW,218,1.0,7.0,29,0.00,,,0.00,0,HR-IXPWINDi_r2_v1.2.,2013-02-22 00:59:00,
2013-02-21 20:04:00,52.4,20.2,30.14,South,169,4.0,8.0,28,0.00,,,0.00,0,HR-IXPWINDi_r2_v1.2.,2013-02-22 01:04:00,
2013-02-21 20:09:00,52.8,19.7,30.14,SSE,148,6.0,8.0,27,0.00,,,0.00,0,HR-IXPWINDi_r2_v1.2.,2013-02-22 01:09:00,
2013-02-21 20:14:00,53.1,19.1,30.13,ESE,104,5.0,13.0,26,0.00,,,0.00,0,HR-IXPWINDi_r2_v1.2.,2013-02-22 01:14:00,
2013-02-21 20:20:00,53.0,19.0,30.14,SSE,148,7.0,13.0,26,0.00,,,0.00,0,HR-IXPWINDi_r2_v1.2.,2013-02-22 01:20:00,
2013-02-21 20:25:00,52.5,19.5,30.13,SE,128,9.0,13.0,27,0.00,,,0.00,0,HR-IXPWINDi_r2_v1.2.,2013-02-22 01:25:00,
2013-02-21 20:30:00,52.2,18.4,30.13,SE,136,5.0,13.0,26,0.00,,,0.00,0,HR-IXPWINDi_r2_v1.2.,2013-02-22 01:30:00,
2013-02-21 20:35:00,52.1,18.3,30.13,SE,128,6.0,13.0,26,0.00,,,0.00,0,HR-IXPWINDi_r2_v1.2.,2013-02-22 01:35:00,
2013-02-21 20:40:00,52.1,19.1,30.14,ESE,106,1.0,9.0,27,0.00,,,0.00,0,HR-IXPWINDi_r2_v1.2.,2013-02-22 01:40:00,
2013-02-21 20:46:00,51.8,19.7,30.16,East,98,4.0,9.0,28,0.00,,,0.00,0,HR-IXPWINDi_r2_v1.2.,2013-02-22 01:46:00,
2013-02-21 20:51:00,51.0,26.3,30.17,East,80,2.0,4.0,38,0.00,,,0.00,0,HR-IXPWINDi_r2_v1.2.,2013-02-22 01:51:00,
2013-02-21 20:56:00,49.7,26.9,30.18,NNW,327,3.0,4.0,41,0.00,,,0.00,0,HR-IXPWINDi_r2_v1.2.,2013-02-22 01:56:00,
2013-02-21 21:02:00,48.6,27.7,30.20,SSW,213,2.0,4.0,44,0.00,,,0.00,0,HR-IXPWINDi_r2_v1.2.,2013-02-22 02:02:00,
2013-02-21 21:07:00,48.1,28.3,30.21,South,185,0.0,5.0,46,0.00,,,0.00,0,HR-IXPWINDi_r2_v1.2.,2013-02-22 02:07:00,
2013-02-21 21:12:00,46.7,29.5,30.21,SSE,165,6.0,8.0,51,0.00,,,0.01,0,HR-IXPWINDi_r2_v1.2.,2013-02-22 02:12:00,
2013-02-21 21:17:00,45.9,30.2,30.22,SW,217,4.0,12.0,54,0.00,,,0.01,0,HR-IXPWINDi_r2_v1.2.,2013-02-22 02:17:00,
2013-02-21 21:23:00,44.8,30.0,30.23,SE,146,0.0,12.0,56,0.08,,,0.02,0,HR-IXPWINDi_r2_v1.2.,2013-02-22 02:23:00,
2013-02-21 21:28:00,44.3,32.9,30.23,North,5,3.0,8.0,64,0.06,,,0.02,0,HR-IXPWINDi_r2_v1.2.,2013-02-22 02:28:00,
2013-02-21 21:33:00,42.9,34.1,30.22,North,355,5.0,5.0,71,0.05,,,0.03,0,HR-IXPWINDi_r2_v1.2.,2013-02-22 02:33:00,
2013-02-21 21:38:00,42.3,33.2,30.21,NNW,348,7.0,9.0,70,0.09,,,0.04,0,HR-IXPWINDi_r2_v1.2.,2013-02-22 02:38:00,
2013-02-21 21:43:00,42.1,33.0,30.21,NE,51,3.0,10.0,70,0.07,,,0.04,0,HR-IXPWINDi_r2_v1.2.,2013-02-22 02:43:00,
2013-02-21 21:48:00,42.2,32.7,30.20,NE,44,4.0,10.0,69,0.04,,,0.04,0,HR-IXPWINDi_r2_v1.2.,2013-02-22 02:48:00,
2013-02-21 21:53:00,41.9,33.8,30.18,North,355,4.0,10.0,73,0.00,,,0.04,0,HR-IXPWINDi_r2_v1.2.,2013-02-22 02:53:00,
2013-02-21 21:58:00,41.2,33.2,30.17,North,355,4.0,7.0,73,0.00,,,0.04,0,HR-IXPWINDi_r2_v1.2.,2013-02-22 02:58:00,
2013-02-21 22:04:00,41.5,32.8,30.18,NNW,335,2.0,6.0,71,0.00,,,0.04,0,HR-IXPWINDi_r2_v1.2.,2013-02-22 03:04:00,
2013-02-21 22:09:00,41.3,33.6,30.19,NNE,23,1.0,4.0,74,0.00,,,0.04,0,HR-IXPWINDi_r2_v1.2.,2013-02-22 03:09:00,
2013-02-21 22:14:00,41.3,34.6,30.19,ENE,69,1.0,5.0,77,0.00,,,0.04,0,HR-IXPWINDi_r2_v1.2.,2013-02-22 03:14:00,
2013-02-21 22:19:00,40.5,35.4,30.20,SE,132,0.0,7.0,82,0.00,,,0.05,0,HR-IXPWINDi_r2_v1.2.,2013-02-22 03:19:00,
2013-02-21 22:24:00,40.0,35.5,30.20,ENE,77,3.0,7.0,84,0.00,,,0.05,0,HR-IXPWINDi_r2_v1.2.,2013-02-22 03:24:00,
2013-02-21 22:30:00,40.3,36.1,30.20,NNW,331,0.0,5.0,85,0.00,,,0.05,0,HR-IXPWINDi_r2_v1.2.,2013-02-22 03:30:00,
2013-02-21 22:35:00,40.1,36.2,30.21,NNW,331,1.0,4.0,86,0.05,,,0.06,0,HR-IXPWINDi_r2_v1.2.,2013-02-22 03:35:00,
2013-02-21 22:40:00,40.0,36.4,30.20,NNW,334,0.0,3.0,87,0.05,,,0.06,0,HR-IXPWINDi_r2_v1.2.,2013-02-22 03:40:00,
2013-02-21 22:45:00,39.9,36.3,30.20,NE,42,0.0,3.0,87,0.06,,,0.07,0,HR-IXPWINDi_r2_v1.2.,2013-02-22 03:45:00,
2013-02-21 22:50:00,39.8,36.5,30.21,NE,42,1.0,3.0,88,0.06,,,0.07,0,HR-IXPWINDi_r2_v1.2.,2013-02-22 03:50:00,
2013-02-21 22:55:00,39.6,36.6,30.21,NE,42,0.0,2.0,89,0.06,,,0.08,0,HR-IXPWINDi_r2_v1.2.,2013-02-22 03:55:00,
2013-02-21 23:00:00,39.4,36.7,30.21,NE,42,0.0,2.0,90,0.07,,,0.09,0,HR-IXPWINDi_r2_v1.2.,2013-02-22 04:00:00,
2013-02-21 23:05:00,39.6,36.9,30.21,NE,42,0.0,2.0,90,0.07,,,0.09,0,HR-IXPWINDi_r2_v1.2.,2013-02-22 04:05:00,
2013-02-21 23:10:00,39.2,36.8,30.23,SE,138,5.0,5.0,91,0.06,,,0.10,0,HR-IXPWINDi_r2_v1.2.,2013-02-22 04:10:00,
2013-02-21 23:15:00,39.1,36.7,30.23,SE,140,0.0,6.0,91,0.06,,,0.10,0,HR-IXPWINDi_r2_v1.2.,2013-02-22 04:15:00,
2013-02-21 23:21:00,39.2,37.0,30.21,SE,140,0.0,6.0,92,0.07,,,0.11,0,HR-IXPWINDi_r2_v1.2.,2013-02-22 04:21:00,
2013-02-21 23:26:00,39.0,36.6,30.21,SSW,203,2.0,5.0,91,0.11,,,0.12,0,HR-IXPWINDi_r2_v1.2.,2013-02-22 04:26:00,
2013-02-21 23:31:00,39.0,36.6,30.23,SSW,212,3.0,5.0,91,0.08,,,0.12,0,HR-IXPWINDi_r2_v1.2.,2013-02-22 04:31:00,
2013-02-21 23:36:00,38.8,36.4,30.22,SSW,212,0.0,6.0,91,0.07,,,0.13,0,HR-IXPWINDi_r2_v1.2.,2013-02-22 04:36:00,
2013-02-21 23:41:00,38.8,36.6,30.22,SSW,212,0.0,5.0,92,0.16,,,0.15,0,HR-IXPWINDi_r2_v1.2.,2013-02-22 04:41:00,
2013-02-21 23:46:00,38.6,36.4,30.23,SSW,212,0.0,3.0,92,0.13,,,0.16,0,HR-IXPWINDi_r2_v1.2.,2013-02-22 04:46:00,
2013-02-21 23:51:00,38.4,36.2,30.23,NW,325,0.0,7.0,92,0.10,,,0.16,0,HR-IXPWINDi_r2_v1.2.,2013-02-22 04:51:00,
2013-02-21 23:57:00,38.5,36.3,30.22,North,360,0.0,7.0,92,0.08,,,0.17,0,HR-IXPWINDi_r2_v1.2.,2013-02-22 04:57:00,